x

9439040 - Astoria, Or (asto3) Weather Station

8:54 - Fri 29th May 2015 All times are PDT. -7 hours from GMT.

  • Wind
    9mph, 11mph gusts
  • Sea Temp 62°f
  • Luft Temp 55°f
  • Sea Pressure 1015.9mb
  • 9439040 - Astoria, Or
  • 9439040 - Astoria, Or

More Historic Weather Station data

Upgrade to MSW Pro to gain access to the past 30 days of data for over 8000 Wavebouys and Weather Stations around the globe.

Join Pro

Comparision Forecast

View Surf forecast
   
Fr 05/29 8:54 9 11 mph 1015.9mb 62f 55f
8:48 7 11 mph 1015.9mb 62f 55f
8:42 7 10 mph 1015.9mb 62f 55f
8:36 7 9 mph 1015.9mb 62f 55f
8:30 5 9 mph 1015.9mb 62f 55f
8:24 7 10 mph 1015.8mb 62f 55f
8:18 6 8 mph 1016mb 62f 55f
8:12 8 9 mph 1015.9mb 62f 55f
8:06 7 9 mph 1015.8mb 62f 55f
8:00 7 9 mph 1015.8mb 62f 55f
7:54 7 9 mph 1015.8mb 62f 55f
7:48 8 10 mph 1015.8mb 62f 55f
7:42 8 10 mph 1015.9mb 62f 56f
7:36 2 6 mph 1015.9mb 62f 57f
7:30 1 6 mph 1015.9mb 62f 57f
7:24 2 6 mph 1015.8mb 62f 57f
7:18  -  5 mph 1015.9mb 62f 58f
7:12  -  6 mph 1015.9mb 62f 58f
7:06 2 7 mph 1016mb 62f 57f
7:00 2 7 mph 1016.1mb 62f 57f
6:54 5 10 mph 1016.1mb 62f 57f
6:48 5 9 mph 1016.2mb 62f 57f
6:42 1 13 mph 1016.1mb 62f 57f
6:36 5 14 mph 1016.1mb 62f 57f
6:30 3 8 mph 1016mb 62f -
6:24 3 11 mph 1016mb 63f -
6:18 3 9 mph 1016.1mb 63f 57f
6:12 7 13 mph 1016.1mb 62f 57f
6:06 6 13 mph 1016.3mb 62f 57f
6:00 7 11 mph 1016.3mb 63f 57f
5:54 6 10 mph 1016.3mb 63f 57f
5:48 3 11 mph 1016.3mb 63f 57f
5:42 5 16 mph 1016.5mb 63f 57f
5:36 6 13 mph 1016.6mb 63f 57f
5:30 6 11 mph 1016.7mb 63f 57f
5:24 7 14 mph 1016.7mb 63f 57f
5:18 7 14 mph 1016.8mb 63f 57f
5:12 6 13 mph 1016.8mb 63f 57f
5:06 7 14 mph 1016.6mb 62f 57f
5:00 7 13 mph 1016.6mb 62f 57f
4:54 9 13 mph 1016.7mb 62f 57f
4:48 8 16 mph 1016.7mb 62f 57f
4:42 7 15 mph 1016.7mb 62f 57f
4:36 7 15 mph 1016.8mb 63f 57f
4:30 6 15 mph 1016.8mb 63f 58f
4:24 7 15 mph 1016.8mb 63f 57f
4:18 9 14 mph 1016.8mb 63f 57f
4:12 7 15 mph 1016.8mb 63f 57f
4:06 8 14 mph 1016.8mb 63f 57f
4:00 6 14 mph 1016.8mb 62f 58f
3:54 8 14 mph 1016.8mb 62f 57f
3:48 7 16 mph 1016.8mb 62f 58f
3:42 8 14 mph 1016.8mb 62f 57f
3:36 7 15 mph 1016.8mb 62f 57f
3:30 8 14 mph 1016.8mb 62f 58f
3:24 8 14 mph 1016.8mb 62f 57f
3:18 8 14 mph 1016.8mb 62f 57f
3:12 2 14 mph 1016.9mb 62f 58f
3:06 5 11 mph 1016.9mb 62f 57f
3:00 5 13 mph 1016.9mb 62f 58f
2:54 6 11 mph 1016.9mb 62f 57f
2:48 5 10 mph 1017mb 62f 57f
2:42 5 13 mph 1017mb 62f 57f
2:36 6 10 mph 1017mb 62f 57f
2:30  -  mph 1017mb 61f 57f
2:24 6 10 mph 1017mb 61f 57f
2:18 6 10 mph 1017mb 61f 57f
2:12 5 9 mph 1017.1mb 61f 57f
2:06 3 10 mph 1017.1mb 61f 57f
2:00 3 8 mph 1017.1mb 61f 57f
1:30  -  mph 1017.4mb - -
1:24  -  mph 1017.4mb - -
1:06  -  mph 1017.5mb - -
1:00  -  mph 1017.5mb - -
12:30 2 6 mph 1017.6mb 62f 56f
12:24  -  6 mph 1017.6mb 61f 56f
12:18 5 9 mph 1017.6mb 61f 56f
12:12 2 8 mph 1017.6mb 61f 56f
12:06 5 9 mph 1017.6mb 61f 56f
12:00 3 8 mph 1017.7mb 62f 55f
11:54 3 8 mph 1017.7mb 62f 55f
11:48 2 8 mph 1017.8mb 62f 55f
11:42 3 7 mph 1017.8mb 62f 56f
11:36 1 6 mph 1017.8mb 62f 55f
11:30 1 10 mph 1017.8mb 62f 55f
11:24 3 7 mph 1017.8mb 62f 54f
11:18 3 9 mph 1017.9mb 62f 54f
11:12 3 7 mph 1017.9mb 62f 54f
11:06  -  5 mph 1017.9mb 62f 55f
11:00 1 6 mph 1017.9mb 62f 55f
10:54 1 5 mph 1018mb 62f 55f
10:48 1 7 mph 1017.9mb 62f 55f
10:42 1 7 mph 1017.9mb 62f 55f
10:36 3 7 mph 1017.9mb 62f 54f
10:30 1 8 mph 1017.9mb 62f 54f
10:24 2 7 mph 1017.8mb 62f 54f
10:18 5 8 mph 1017.8mb 62f 54f
10:12 5 8 mph 1017.8mb 62f 54f
10:06 6 9 mph 1017.7mb 62f 53f
10:00 3 9 mph 1017.7mb 61f 53f
9:54 8 10 mph 1017.7mb 61f 53f
9:48 6 8 mph 1017.8mb 61f 53f
9:42 6 8 mph 1017.8mb 61f 53f
9:36 5 8 mph 1017.8mb 61f 53f
9:30 5 7 mph 1017.8mb 61f 54f
9:24 3 7 mph 1017.7mb 61f 54f
9:18 5 9 mph 1017.7mb 61f 54f
9:12 5 6 mph 1017.7mb 61f 53f
9:06 5 7 mph 1017.6mb 61f 53f
9:00 5 7 mph 1017.6mb 61f 53f
8:54 3 7 mph 1017.5mb 61f 53f
8:48 3 6 mph 1017.5mb 61f 53f
8:42 5 8 mph 1017.6mb 61f 53f
8:36 6 10 mph 1017.5mb 61f 53f
8:30 6 8 mph 1017.5mb 61f 53f
8:24 6 8 mph 1017.6mb 61f 53f
8:18 5 8 mph 1017.5mb 61f 53f
8:12 6 8 mph 1017.5mb 62f 53f
8:06 6 10 mph 1017.4mb 62f 53f
8:00 8 9 mph 1017.4mb 61f 53f
7:54 6 9 mph 1017.4mb 61f 53f
7:48 6 8 mph 1017.4mb 61f 53f
7:42 6 7 mph 1017.4mb 61f 53f
7:36 5 7 mph 1017.3mb 61f 53f
7:30 6 8 mph 1017.3mb 61f 52f
7:24 6
mph
1017.3mb 61f 52f
7:18 6 8 mph 1017.4mb 61f 52f
7:12 6 8 mph 1017.3mb 61f 53f
7:06 5 7 mph 1017.3mb 61f 53f
7:00 6 8 mph 1017.3mb 61f 53f
6:54 5 7 mph 1017.3mb 61f 52f
6:48 5 8 mph 1017.3mb 61f 52f
6:42 7 8 mph 1017.3mb 61f 52f
6:36 6 9 mph 1017.3mb 61f 53f
6:30 8 9 mph 1017.2mb 61f 53f
6:24 7 9 mph 1017.3mb 61f 53f
6:18 1 5 mph 1017.3mb 61f 53f
6:12 3 6 mph 1017.2mb 61f 52f
6:06 3 6 mph 1017.2mb 61f 52f
6:00 5 6 mph 1017.2mb 61f 52f
5:54 3 6 mph 1017.2mb 61f 53f
5:48 5 7 mph 1017.3mb 61f 53f
5:42 6 8 mph 1017.3mb 61f 53f
5:36 6 7 mph 1017.3mb 61f 53f
5:30 5 6 mph 1017.4mb 61f 53f
5:24 3 6 mph 1017.3mb 61f 53f
5:18 1 3 mph 1017.3mb 61f 53f
5:12 1 6 mph 1017.3mb 61f 53f
5:06 3 6 mph 1017.3mb 61f 53f
5:00 2 7 mph 1017.4mb 61f 53f
4:48 5 8 mph 1017.4mb 61f 53f
4:42 7 8 mph 1017.3mb 61f 53f
4:36 6 8 mph 1017.3mb 61f 53f
4:30 6 7 mph 1017.3mb 61f 53f
4:24 5 7 mph 1017.3mb 61f 53f
4:18 6 8 mph 1017.3mb 61f 53f
4:12 8 9 mph 1017.3mb 61f 53f
4:06 5 9 mph 1017.3mb 61f 53f
4:00 6 8 mph 1017.3mb 61f 53f
3:54 6 9 mph 1017.4mb 61f 53f
3:48 7 9 mph 1017.4mb 61f 53f
3:42 8 10 mph 1017.5mb 61f 53f
3:36 9 10 mph 1017.5mb 61f 53f
3:30 7 9 mph 1017.4mb 61f 53f
3:24 6 7 mph 1017.5mb 61f 53f
3:18 6 8 mph 1017.5mb 61f 53f
3:12 3 6 mph 1017.5mb 61f 53f
3:06 5 7 mph 1017.5mb 61f 53f
3:00 6 7 mph 1017.5mb 61f 53f
2:54 5 7 mph 1017.4mb 61f 53f
2:48 3 6 mph 1017.4mb 61f 53f
2:42 3 6 mph 1017.4mb 61f 54f
2:36 2 8 mph 1017.5mb 61f 54f
2:30 6 8 mph 1017.6mb 61f 53f
2:24 6 8 mph 1017.6mb 61f 54f
2:18 3 9 mph 1017.6mb 61f -
2:12 3 7 mph 1017.6mb 61f -
2:06 2 7 mph 1017.5mb 61f -
2:00 5 7 mph 1017.6mb 61f 54f
1:54 5 7 mph 1017.6mb 61f 53f
1:48 5 7 mph 1017.7mb 61f 53f
1:42 2 7 mph 1017.7mb 61f 54f
1:36 3 7 mph 1017.7mb 61f 54f
1:30 3 7 mph 1017.8mb 61f 54f
1:24 2 7 mph 1017.8mb 61f 54f
1:18 3 8 mph 1017.8mb 61f 54f
1:12 6 9 mph 1017.8mb 61f 53f
1:06 2 8 mph 1017.8mb 61f 54f
1:00 5 8 mph 1017.8mb 61f 54f
12:54 5 7 mph 1017.9mb 61f 54f
12:48 3 7 mph 1017.9mb 61f 54f
12:42 2 7 mph 1017.9mb 61f 54f
12:36 6 9 mph 1017.9mb 61f 53f
12:30 6 9 mph 1018mb 61f 53f
12:24 2 6 mph 1018mb 61f 54f
12:18 3 7 mph 1017.9mb 61f 54f
12:12 3 8 mph 1017.9mb 61f 54f
12:06 5 9 mph 1017.9mb 61f 54f
12:00  -  mph - 61f -
Do 05/28 11:54  -  mph - 61f -
11:48  -  mph - 61f -
11:42  -  mph - 61f -
11:36  -  mph - 61f -
11:30 7 10 mph 1017.9mb 61f 53f
11:24 7 9 mph 1017.9mb 61f 53f
11:18 7 9 mph 1017.9mb 61f 54f
11:12 7 10 mph 1018mb 62f -
11:06 6 9 mph 1017.9mb 62f -
11:00 6 7 mph 1018mb 62f 54f
10:54 2 7 mph 1018mb 62f 55f
10:48 3 8 mph 1018mb 62f 55f
10:42 3 8 mph 1018.1mb 62f 55f
10:36 1 7 mph 1018.2mb 62f 55f
10:30 6 7 mph 1018.2mb 62f 54f
10:24 6 7 mph 1018.3mb 62f 54f
10:18 5 7 mph 1018.3mb 62f 55f
10:12 3 5 mph 1018.3mb 62f 55f
10:06  -  3 mph 1018.4mb 62f 54f
10:00 2 6 mph 1018.4mb 62f 55f
9:54 1 6 mph 1018.4mb 62f 55f
9:48 1 5 mph 1018.3mb 62f 55f
9:42  -  3 mph 1018.3mb 62f 55f
9:36  -  2 mph 1018.3mb 62f 55f
9:30 1 5 mph 1018.2mb 62f 55f
9:24  -  5 mph 1018.2mb 62f 55f
9:18 5 8 mph 1018.2mb 62f 55f
9:12 6 8 mph 1018.2mb 62f 55f
9:06 2 8 mph 1018.2mb 62f 55f
9:00 5 7 mph 1018.2mb 62f 55f
8:54 5 9 mph 1018.2mb 62f 55f
8:48 6 9 mph 1018.2mb 62f 55f
8:42 5 8 mph 1018.1mb 62f 55f
8:36 3 8 mph 1018.1mb 62f 55f
8:30 5 13 mph 1018.1mb 62f 55f
8:24 3 13 mph 1018.2mb 62f 55f
8:18 6 13 mph 1018.2mb 62f 55f
8:12 1 10 mph 1018.1mb 62f 55f
8:06 6 11 mph 1018.1mb 62f 55f
8:00 5 11 mph 1018.1mb 62f 56f
7:54 7 14 mph 1018.1mb 62f 56f
7:48 7 11 mph 1018.1mb 62f 56f
7:42 7 11 mph 1018.1mb 62f 56f
7:36 5 10 mph 1018mb 63f 56f
7:30 3 9 mph 1017.9mb 63f 56f
7:24 6 11 mph 1018mb 63f 56f
7:18 2 8 mph 1018mb 63f 56f
7:12 2 10 mph 1018mb 63f 56f
7:06 3 9 mph 1018.1mb 63f 56f
7:00 3 9 mph 1018.1mb 63f 56f
6:54 2 11 mph 1018.1mb 63f 56f
6:48 8 13 mph 1018.1mb 63f 56f
6:42 8 13 mph 1018.1mb 63f 56f
6:36 7 15 mph 1018.1mb 63f 56f
6:30 8 13 mph 1018.1mb 63f 56f
6:24 8 13 mph 1018.2mb 63f 56f
6:18 7 14 mph 1018.3mb 62f 56f
6:12 7 14 mph 1018.3mb 62f 56f
6:06 7 13 mph 1018.3mb 62f 57f
6:00 7 11 mph 1018.4mb 62f 57f
5:54 7 14 mph 1018.5mb 62f 56f
5:48 7 13 mph 1018.6mb 62f 56f
5:42 8 11 mph 1018.6mb 63f 57f
5:36 9 15 mph 1018.7mb 63f 57f
5:30 8 14 mph 1018.7mb 63f 57f
5:24 10 16 mph 1018.7mb 62f 56f
5:18 6 14 mph 1018.8mb 62f 57f
5:12 6 16 mph 1018.8mb 63f 57f
5:06 7 15 mph 1018.8mb 63f 57f
5:00 8 15 mph 1018.8mb 63f 57f
4:54 9 14 mph 1018.7mb 63f 57f
4:48 7 14 mph 1018.8mb 63f 57f
4:42 6 14 mph 1018.8mb 63f 57f
4:36 7 15 mph 1018.8mb 63f 57f
4:30 7 15 mph 1018.8mb 63f 57f
4:24 7 15 mph 1018.9mb 63f 57f
4:12 6 16 mph 1018.9mb 63f 57f
4:06 6 16 mph 1018.9mb 63f 57f
4:00 5 14 mph 1018.9mb 62f 57f
3:54 6 15 mph 1018.9mb 62f 57f
3:48 6 16 mph 1018.9mb 62f 57f
3:42 7 16 mph 1018.8mb 62f 58f
3:36 8 15 mph 1018.8mb 62f 58f
3:30 9 15 mph 1018.8mb 62f 58f
3:24 9 14 mph 1018.7mb 62f 58f
3:18 2 9 mph 1018.6mb 62f 59f
3:12 3 9 mph 1018.6mb 62f 59f
3:06 5 11 mph 1018.6mb 63f 59f
3:00 3 13 mph 1018.6mb 62f 59f
2:54 3 11 mph 1018.6mb 62f 58f
2:48 5 11 mph 1018.5mb 62f 58f
2:42 3 9 mph 1018.6mb 62f 58f
2:36 6 11 mph 1018.7mb 62f 58f
2:30 6 13 mph 1018.8mb 62f 58f
2:24 5 13 mph 1018.9mb 62f 58f
2:18 3 9 mph 1018.9mb 62f 59f
2:12 3 8 mph 1018.9mb 62f 59f
2:06 3 9 mph 1018.9mb 62f 58f
2:00 2 7 mph 1019mb 62f 59f
1:54 2 8 mph 1019mb 62f 59f
1:48 3 10 mph 1019mb 62f 59f
1:42 2 8 mph 1019mb 62f 59f
1:36 2 7 mph 1019mb 61f 59f
1:30 2 5 mph 1019mb 61f 59f
1:24 2 6 mph 1019.1mb 61f 59f
1:18 2 7 mph 1019.1mb 61f 59f
1:12 2 6 mph 1019.1mb 61f 59f
1:06 2 6 mph 1019.2mb 61f 59f
1:00 1 6 mph 1019.2mb 60f 59f
12:54 2 7 mph 1019.2mb 60f 59f
12:48 2 9 mph 1019.3mb 60f 58f
12:42 3 7 mph 1019.3mb 60f 58f
12:36 2 7 mph 1019.3mb 61f 58f
12:30 1 5 mph 1019.3mb 61f 59f
12:24 1 6 mph 1019.4mb 61f 59f
12:18  -  5 mph 1019.4mb 61f 59f
12:12 2 5 mph 1019.4mb 61f 58f
12:06 3 6 mph 1019.4mb 61f 56f
12:00 1 5 mph 1019.5mb 61f 58f
11:54 2 5 mph 1019.5mb 61f 57f
11:48 2 5 mph 1019.5mb 61f 56f
11:42 2 6 mph 1019.5mb 61f 56f
11:36 3 7 mph 1019.5mb 61f 56f
11:30  -  5 mph 1019.6mb 61f 57f
11:24 1 3 mph 1019.6mb 61f 56f
11:18 2 3 mph 1019.6mb 61f 55f
11:12 2 5 mph 1019.6mb 61f 55f
11:06 2 5 mph 1019.7mb 61f 55f
11:00 1 3 mph 1019.7mb 61f 55f
10:54 1 3 mph 1019.7mb 61f 55f
10:48 2 6 mph 1019.7mb 61f 55f
10:42 3 6 mph 1019.8mb 61f 54f
10:36 2 6 mph 1019.8mb 61f 54f
10:30 5 6 mph 1019.8mb 61f 54f
10:24 3 6 mph 1019.8mb 61f 54f
10:18 2 3 mph 1019.8mb 61f 54f
10:12 2 3 mph 1019.8mb 61f 54f
10:06 2 3 mph 1019.8mb 61f 54f
10:00 2
mph
1019.7mb 61f 54f
9:54  -  3 mph 1019.7mb 61f 54f
9:48 2 3 mph 1019.8mb 61f 54f
9:42 1 3 mph 1019.8mb 61f 54f
9:36 3 5 mph 1019.8mb 61f 53f
9:30 2 5 mph 1019.8mb 61f 53f
9:24 3 5 mph 1019.9mb 61f 53f
9:18  -  mph 1019.9mb 61f 53f
9:12  -  mph 1019.9mb 61f 53f
9:06  -  mph 1019.9mb 61f 53f
9:00 1 3 mph 1019.9mb 61f 54f
8:54 3 5 mph 1019.8mb 61f 53f
8:48 2 6 mph 1019.8mb 61f 53f
8:42 3 5 mph 1019.8mb 61f 53f
8:36 3 6 mph 1019.8mb 61f 53f
8:30 1 2 mph 1019.8mb 61f 53f
8:24 2 3 mph 1019.8mb 61f 53f
8:18 2 7 mph 1019.8mb 61f 53f
8:12 2 3 mph 1019.9mb 61f 53f
8:06  -  5 mph 1019.9mb 61f 53f
8:00 2 3 mph 1019.9mb 61f 53f
7:54 1 5 mph 1019.8mb 61f 54f
7:48 1 5 mph 1019.7mb 61f 53f
7:42 3 5 mph 1019.6mb 61f 53f
7:36  -  1 mph 1019.6mb 61f 53f
7:30  -  3 mph 1019.6mb 61f 53f
7:24 2 3 mph 1019.5mb 61f 53f
7:18 2 5 mph 1019.5mb 61f 53f
7:12 2 3 mph 1019.6mb 61f 53f
7:06 3
mph
1019.5mb 61f 53f
7:00 2 3 mph 1019.5mb 61f 53f
6:54 2 3 mph 1019.5mb 60f 53f
6:48 3 5 mph 1019.4mb 60f 53f
6:42 2 3 mph 1019.4mb 60f 53f
6:36 1 2 mph 1019.4mb 60f 53f
6:30 1 2 mph 1019.3mb 60f 53f
6:24 2 5 mph 1019.3mb 60f 53f
6:18 3 5 mph 1019.3mb 60f 53f
6:12 3 5 mph 1019.3mb 60f 53f
6:06 3 5 mph 1019.2mb 60f 53f
6:00 3 5 mph 1019.2mb 60f 53f
5:54 2 3 mph 1019.2mb 60f 53f
5:48  -  1 mph 1019.2mb 60f 53f
5:42 1 3 mph 1019.2mb 60f 53f
5:36 2 5 mph 1019.2mb 60f 53f
5:30 2 3 mph 1019.2mb 60f 53f
5:24 2 3 mph 1019.1mb 60f 53f
5:18 2 3 mph 1019mb 60f 53f
5:12 1 2 mph 1019mb 61f 53f
5:06 2 3 mph 1019mb 60f 53f
5:00 1 3 mph 1019mb 60f 53f
4:54 2 5 mph 1019mb 60f 53f
4:48 2 5 mph 1018.9mb 60f 53f
4:42 2 3 mph 1018.9mb 60f 53f
4:36 3 5 mph 1019mb 60f 53f
4:30 5 6 mph 1018.9mb 60f 53f
4:24 3 5 mph 1019mb 60f 53f
4:18  -  6 mph 1019mb 60f 53f
4:12 3 6 mph 1018.9mb 61f 53f
4:06 3 6 mph 1018.8mb 61f 53f
4:00 2 6 mph 1018.8mb 61f 53f
3:54 3 6 mph 1018.8mb 61f 53f
3:48 1 5 mph 1018.7mb 61f 54f
3:42  -  7 mph 1018.8mb 61f 54f
3:36 1 6 mph 1018.7mb 61f 54f
3:30 3 5 mph 1018.7mb - 54f
3:24 1 3 mph 1018.7mb - 54f
3:18  -  2 mph 1018.6mb 61f 53f
3:12  -  3 mph 1018.6mb 61f 53f
3:06 2 5 mph 1018.7mb 61f 53f
3:00 2 6 mph 1018.7mb 61f 54f
2:54 5 6 mph 1018.7mb 61f 54f
2:48 1 3 mph 1018.6mb 61f 54f
2:42 3 7 mph 1018.6mb 61f 53f
2:36 6 7 mph 1018.6mb 60f 53f
2:30 6 7 mph 1018.6mb 60f 53f
2:24 3 6 mph 1018.6mb 60f 53f
2:18 5 6 mph 1018.6mb 60f 53f
2:12 5 6 mph 1018.6mb 60f 53f
2:06 5 8 mph 1018.7mb 60f 53f
2:00 5 6 mph 1018.7mb 60f 53f
1:54 3 5 mph 1018.7mb 60f 53f
1:48 3 5 mph 1018.8mb 60f 54f
1:42 5 6 mph 1018.8mb 60f 53f
1:36 5 8 mph 1018.8mb 60f 53f
1:30 6 7 mph 1018.8mb 60f 53f
1:24 5 7 mph 1018.9mb 60f 53f
1:18 5 6 mph 1018.9mb 60f 54f
1:12 6 8 mph 1018.9mb 60f 53f
1:06 6 8 mph 1019mb 60f 53f
1:00 5 9 mph 1019mb 60f 54f
12:54 7 9 mph 1019mb 60f 53f
12:48 7 8 mph 1019mb 60f 54f
12:42 6 8 mph 1019mb 61f 54f
12:36 5 7 mph 1019.1mb 61f 54f
12:30 2 5 mph 1019.1mb 61f 54f
12:24 2 6 mph 1019.1mb 61f 54f
12:18 6 8 mph - 61f 54f
12:12 7 9 mph - 61f 54f
12:06 6 8 mph - 61f 54f
12:00 6 8 mph 1019.2mb 61f 54f
Mi 05/27 11:54 5 9 mph 1019.1mb 61f 54f
11:48 6 8 mph 1019.1mb 61f 55f
11:42 5 8 mph 1019.2mb 61f 55f
11:36 3 7 mph 1019.2mb 61f 55f
11:30 1 6 mph 1019.3mb 61f 55f
11:24 6 8 mph 1019.2mb 61f 55f
11:18 3 6 mph 1019.3mb 61f 55f
11:12 6 7 mph 1019.3mb 61f 55f
11:06 3 6 mph 1019.3mb 61f 55f
11:00 3 11 mph 1019.2mb 61f 55f
10:54 8 11 mph 1019.1mb 61f 55f
10:48 6 8 mph 1019mb 61f 55f
10:42 6 8 mph 1019mb 61f 54f
10:36 8 10 mph 1019mb 61f 54f
10:30 7 10 mph 1019.1mb 61f 54f
10:24 6 10 mph 1019.1mb 61f 55f
10:18 9 11 mph 1019.1mb 61f 54f
10:12 8 10 mph 1019mb 61f 54f
10:06 9 11 mph 1019mb 61f 54f
10:00 8 13 mph 1019mb 61f 54f
9:54 10 13 mph 1019mb 61f 55f
9:48 9 14 mph 1018.9mb 61f 55f
9:42 7 11 mph 1018.9mb 61f 55f
9:36 8 10 mph 1018.9mb 61f 55f
9:30 6 10 mph 1018.8mb 61f 55f
9:24 7 10 mph 1018.8mb 61f 55f
9:18 5 11 mph 1018.7mb 61f 55f
9:12 7 9 mph 1018.7mb 61f 55f
9:06 7 10 mph 1018.6mb 61f 55f
9:00 7 10 mph 1018.6mb 61f 55f
8:54 3 8 mph 1018.5mb 61f 56f
8:48 6 10 mph 1018.5mb 62f 55f
8:42 6 11 mph 1018.5mb 62f 55f
8:36 8 10 mph 1018.3mb 62f 55f
8:30 8 11 mph 1018.4mb 62f 55f
8:24 6 8 mph 1018.4mb 62f 55f
8:18 5 8 mph 1018.3mb 62f 56f
8:12 3 8 mph 1018.2mb 62f 56f
8:06 5 10 mph 1018.3mb 62f 56f
8:00 6 11 mph 1018.3mb 62f 56f
7:54 7 10 mph 1018.3mb 62f 56f
7:48 7 11 mph 1018.3mb 62f 56f
7:42 7 11 mph 1018.3mb 62f 56f
7:36 7 10 mph 1018.4mb 62f 56f
7:30 6 11 mph 1018.4mb 62f 56f
7:24 6 10 mph 1018.5mb 62f 56f
7:18 7 13 mph 1018.4mb 62f 56f
7:12 8 11 mph 1018.5mb 62f 56f
7:06 8 13 mph 1018.5mb 62f 56f
7:00 6 13 mph 1018.5mb 62f 57f
6:54 8 11 mph 1018.4mb 62f 56f
6:48 6 11 mph 1018.4mb 62f 57f
6:42 7 13 mph 1018.4mb 62f 57f
6:36 6 14 mph 1018.4mb 62f 57f
6:30 8 15 mph 1018.5mb 62f 57f
6:24 7 17 mph 1018.6mb 62f 57f
6:18 8 14 mph 1018.7mb 62f 57f
6:12 8 14 mph 1018.7mb 62f 58f
6:06 8 15 mph 1018.6mb 62f 57f
6:00 10 16 mph 1018.6mb 62f 57f
5:54 8 15 mph 1018.7mb 62f 57f
5:48 9 15 mph 1018.7mb 62f 57f
5:42 9 16 mph 1018.7mb 62f 57f
5:36 8 15 mph 1018.6mb 62f 57f
5:30 7 13 mph 1018.6mb 62f 58f
5:24 8 14 mph 1018.6mb 62f 57f
5:18 8 14 mph 1018.6mb 62f 57f
5:12 8 15 mph 1018.7mb 62f 57f
5:06 7 15 mph 1018.8mb 62f 57f
5:00 8 16 mph 1018.7mb 62f 57f
4:54 7 16 mph 1018.7mb 62f 57f
4:48 8 15 mph 1018.7mb 62f 57f
4:42 7 15 mph 1018.8mb 62f 57f
4:36 10 15 mph 1018.8mb 62f 57f
4:30 9 16 mph 1018.8mb 62f 57f
4:24 9 16 mph 1018.8mb 62f 57f
4:18 8 15 mph 1018.8mb 62f 57f
4:12 8 14 mph 1018.9mb 62f 58f
4:06 9 16 mph 1018.8mb 62f 57f
4:00 10 16 mph 1018.9mb 62f 57f
3:54 10 16 mph 1018.9mb 62f 57f
3:48 9 17 mph 1019mb 62f 57f
3:00 9 16 mph 1019mb 61f 57f
2:54 9 15 mph 1019mb 61f 57f
2:48 8 15 mph 1019mb 61f 58f
2:30 7 16 mph 1019mb 61f 58f
2:24 8 15 mph 1019mb 62f 58f
2:18 8 15 mph 1019.1mb 62f 58f
2:12 9 14 mph 1019.1mb 62f 58f
2:06 7 16 mph 1019.1mb 61f 58f
2:00 8 16 mph 1019.1mb 61f 58f
1:54 7 13 mph 1019.1mb 61f 58f
1:48 5 11 mph 1019.1mb 61f 59f
1:42 3 7 mph 1019.1mb 61f 59f
1:36 2 6 mph 1019mb 61f 60f
1:30 1 5 mph 1018.9mb 61f 60f
1:24 3 9 mph 1018.9mb 61f 59f
1:18 2 6 mph 1018.9mb 61f 59f
1:12 2 6 mph 1019mb 61f 59f
1:06 2 7 mph 1019mb 61f 59f
1:00 1 7 mph 1019mb 61f 59f
12:54 1 6 mph 1019mb 60f 59f
12:48 2 6 mph 1019.1mb 60f 59f
12:42 2 7 mph 1019.1mb 60f 58f
12:36 2 7 mph 1019.1mb 60f 58f
12:30  -  5 mph 1019.1mb 60f 58f
12:24 3 7 mph 1019.2mb 60f 57f
12:18 3 6 mph 1019.2mb 60f 57f
12:12 3 7 mph 1019.2mb 60f 56f
12:06 2 5 mph 1019.2mb 60f 57f
12:00 2 3 mph 1019.3mb 60f 56f
11:54 2 3 mph 1019.4mb 60f 56f
11:48 1 6 mph 1019.4mb 60f 57f
11:42 3
mph
1019.5mb 59f 55f
11:36 3 5 mph 1019.5mb 60f 55f
11:30 2 7 mph 1019.5mb 61f 55f
11:24 5 7 mph 1019.5mb 61f 55f
11:18 5 7 mph 1019.5mb 61f 55f
11:12 2 3 mph 1019.4mb 61f 55f
11:06 2 5 mph 1019.4mb 61f 55f
11:00  -  3 mph 1019.4mb 61f 55f
10:54 2 5 mph 1019.4mb 61f 55f
10:48 1 3 mph 1019.5mb 61f 55f
10:42 2 3 mph 1019.5mb 61f 54f
10:36 2 6 mph 1019.5mb 61f 54f
10:30 5 7 mph 1019.5mb 61f 54f
10:24 3 5 mph 1019.6mb 61f 55f
10:18 1 3 mph 1019.6mb 61f 55f
10:12 1 6 mph 1019.7mb 61f 55f
10:06  -  5 mph 1019.7mb 61f 55f
10:00  -  5 mph 1019.7mb 61f 55f
9:54  -  3 mph 1019.7mb 61f 55f
9:48  -  5 mph 1019.8mb 61f 54f
9:42 1 3 mph 1019.7mb 61f 54f
9:36 1 2 mph 1019.6mb 61f 53f
9:30 1 3 mph 1019.6mb 61f 53f
9:24 3 5 mph 1019.6mb 61f 53f
9:18 3 5 mph 1019.7mb 61f 53f
9:12  -  2 mph 1019.6mb 61f 54f
9:06  -  2 mph 1019.6mb 61f 53f
9:00 1 2 mph 1019.5mb 61f 53f
8:54 2 3 mph 1019.5mb 61f 53f
8:48 1
mph
1019.5mb 61f 53f
8:42 1 2 mph 1019.5mb 61f 53f
8:36 2 3 mph 1019.4mb 61f 53f
8:30  -  2 mph 1019.4mb 61f 53f
8:24 2 3 mph 1019.4mb 61f 53f
8:18  -  2 mph 1019.4mb 61f 53f
8:12 2 3 mph 1019.4mb 61f 53f
8:06 2 3 mph 1019.4mb 61f 53f
8:00 3 5 mph 1019.4mb 60f 52f
7:54 2 6 mph 1019.3mb 60f 52f
7:48 3 6 mph 1019.3mb 60f 53f
7:42 5 6 mph 1019.3mb 60f 53f
7:36 5 6 mph 1019.4mb 60f 52f
7:30 5 7 mph 1019.4mb 60f 53f
7:24 6 7 mph 1019.4mb 60f 53f
7:18 5 6 mph 1019.4mb 60f 52f
7:12 5 6 mph 1019.3mb 60f 52f
7:06 5 6 mph 1019.3mb 60f 52f
7:00 5 6 mph 1019.3mb 60f 52f
6:54 5 9 mph 1019.2mb 60f 52f
6:48 6 8 mph 1019.2mb 60f 52f
6:42 5 7 mph 1019.2mb 60f 52f
6:36 6 7 mph 1019.2mb 60f 53f
6:30 7 9 mph 1019.2mb 60f 52f
6:24 8 9 mph 1019.2mb 60f 52f
6:18 6 7 mph 1019.2mb 60f 52f
6:12 3 6 mph 1019.3mb 60f 53f
6:06 5 7 mph 1019.2mb 60f 53f
6:00 3 6 mph 1019.1mb 60f 52f
5:54 3 6 mph 1019mb 60f 52f
5:48 5 6 mph 1019mb 60f 52f
5:42 5 7 mph 1018.9mb 60f 52f
5:36 1 3 mph 1018.9mb 60f 53f
5:30 1 3 mph 1018.8mb 60f 53f
5:24 3 6 mph 1018.9mb 60f 52f
5:18 3 5 mph 1018.8mb 60f 52f
5:12 3 6 mph 1018.8mb 60f 52f
5:06 3 7 mph 1018.8mb 60f 52f
5:00 5 8 mph 1018.8mb 60f 53f
4:54 3 7 mph 1018.8mb 60f 53f
4:48 3 6 mph 1018.8mb 60f 52f
4:42 5 6 mph 1018.8mb 60f 53f
4:36 3 7 mph 1018.8mb 60f 52f
4:30 6 8 mph 1018.8mb 60f 52f
4:24 3 6 mph 1018.8mb 60f 53f
4:18 2 5 mph 1018.9mb 60f 53f
4:12 2 3 mph 1018.9mb 60f 53f
4:06 2 6 mph 1018.8mb 60f 53f
4:00 6 8 mph 1018.9mb 60f 53f
3:54 3 6 mph 1018.9mb 60f 53f
3:48 5 7 mph 1018.9mb 60f 52f
3:42 5 7 mph 1019mb 60f 53f
3:36 2 7 mph 1018.9mb 60f 53f
3:30 1 3 mph 1018.9mb 60f 53f
3:24 1 5 mph 1018.9mb 60f 53f
3:18 1 7 mph 1018.9mb 60f 53f
3:12 2 7 mph 1018.8mb 60f 53f
3:06 1 3 mph 1018.8mb 60f 53f
3:00 2 5 mph 1018.8mb 60f 53f
2:54 3 6 mph 1018.8mb 60f 53f
2:48 2 3 mph - - -
2:42 2 5 mph - - -
2:36 2 3 mph - - -
2:30  -  5 mph 1018.8mb 61f 53f
2:24 2 5 mph 1018.8mb 60f 53f
2:18  -  mph 1018.8mb 60f 53f
2:12  -  mph 1018.9mb 60f 53f
2:06  -  mph 1018.8mb 60f 53f
2:00 2 10 mph 1018.8mb 60f 54f
1:54 7 10 mph 1018.9mb 60f 53f
1:48 6 9 mph 1018.9mb 60f 54f
1:42 2 8 mph 1018.9mb 60f 54f
1:36 6 8 mph 1018.9mb 60f 54f
1:30 3 6 mph 1018.8mb 60f 54f
1:24 5 9 mph 1018.8mb 60f 54f
1:18 3 6 mph 1018.8mb 60f 54f
1:12 3 7 mph 1018.7mb 60f 54f
1:06 2 8 mph 1018.7mb 60f 54f
1:00 1 7 mph 1018.6mb 60f 55f
12:54 6 8 mph 1018.6mb 60f 54f
12:48 2 6 mph 1018.5mb 60f 54f
12:42 2 6 mph 1018.5mb 60f 54f
12:36 3 7 mph 1018.6mb 60f 55f
12:30  -  mph 1018.6mb 60f -
12:24  -  mph 1018.6mb - -
12:18 3 9 mph 1018.6mb 60f -
12:12 5 9 mph 1018.6mb 60f -
12:06 2 9 mph 1018.6mb 60f -
12:00 6 10 mph 1018.6mb 60f -
Di 05/26 11:54 8 10 mph 1018.5mb 60f -
11:48 5 9 mph 1018.5mb - -
11:42 8 10 mph 1018.5mb - -
11:36 5 10 mph 1018.5mb - -
11:30 7 10 mph 1018.5mb 61f 55f
11:24 5 7 mph 1018.5mb 61f 55f
11:18 3 7 mph 1018.5mb 61f 55f
11:12 7 10 mph 1018.4mb 61f 55f
11:06 5 9 mph 1018.5mb 61f 55f
11:00  -  mph - - 55f
10:54  -  mph - - 55f
10:48 6 7 mph 1018.5mb 61f 55f
10:42 6
mph
1018.5mb 61f 55f
10:36 3 6 mph 1018.5mb 61f 55f
10:30 2 8 mph 1018.5mb 61f 55f
10:24 6 7 mph 1018.7mb 61f 55f
10:18 6 7 mph 1018.7mb 61f 55f
10:12 6 7 mph 1018.7mb 61f 55f
10:06 3 6 mph 1018.7mb 61f 56f
10:00 3 6 mph 1018.6mb 61f 56f
9:54 5 7 mph 1018.6mb 61f 56f
9:48 2 6 mph 1018.6mb 61f 56f
9:42 1 7 mph 1018.5mb 61f 56f
9:36 3 7 mph 1018.4mb 61f 56f
9:30 2 6 mph 1018.4mb 61f 56f
9:24 1 6 mph 1018.3mb 61f 56f
9:18 1 7 mph 1018.2mb 61f 56f
9:12 3 8 mph 1018.2mb 61f 56f
9:06 3 10 mph 1018.1mb 61f 56f
9:00 5 9 mph 1018.1mb 61f 56f
8:54 2 7 mph 1018.1mb 61f 56f
8:48 1 6 mph 1018mb 61f 57f
8:42 2 7 mph 1018mb 61f 57f
8:36 2 6 mph 1017.9mb 61f 57f
8:30 2 7 mph 1017.9mb 62f 57f
8:24 2 5 mph 1017.9mb 62f 57f
8:18 2 6 mph 1017.8mb 62f 58f
8:12 2 10 mph 1017.8mb 62f 58f
8:06 2 6 mph 1017.8mb 62f 58f
8:00 2 8 mph 1017.7mb 62f 58f
7:54 2 7 mph 1017.7mb 62f 58f
7:48 2 7 mph 1017.7mb 62f 58f
7:42 2 9 mph 1017.6mb 62f 58f
7:36 5 11 mph 1017.6mb 62f 58f
7:30 5 10 mph 1017.6mb 62f 59f
7:24 5 11 mph 1017.6mb 62f 59f
7:18 3 10 mph 1017.6mb 62f 59f
7:12 8 11 mph 1017.6mb 62f 59f
7:06 5 11 mph 1017.6mb 62f 59f
7:00 6 13 mph 1017.5mb 62f 59f
6:54 7 11 mph 1017.6mb 62f 59f
6:48 5 10 mph 1017.6mb 62f 59f
6:42 6 13 mph 1017.6mb 62f 59f
6:36 7 13 mph 1017.7mb 62f 59f
6:30 6 11 mph 1017.7mb 62f 59f
6:24 8 13 mph 1017.7mb 62f 59f
6:18 9 13 mph 1017.7mb 62f 59f
6:12 7 14 mph 1017.7mb 62f 59f
6:06 6 13 mph 1017.7mb 62f 59f
6:00 7 13 mph 1017.7mb 62f 59f
5:54 6 11 mph 1017.8mb 62f 59f
5:48 6 14 mph 1017.8mb 62f 59f
5:42 7 14 mph 1017.8mb 62f 59f
5:36 8 14 mph 1017.8mb 62f 59f
5:30 7 14 mph 1017.8mb 62f 59f
5:24 5 14 mph 1017.9mb 62f 59f
5:18 6 11 mph 1018mb 62f 59f
5:12 5 11 mph 1018mb 62f 59f
5:06 3 9 mph 1018mb 62f 60f
5:00 3 9 mph 1018.1mb 62f 59f
4:54 3 9 mph 1018.1mb 62f 60f
4:48 3 8 mph 1018.1mb 62f 60f
4:42 3 9 mph 1018.1mb 62f 60f
4:36 3 9 mph 1018.1mb 62f 60f
4:30 5 11 mph 1018.1mb 62f 59f
4:24 6 14 mph 1018.1mb 62f 59f
4:18 2 9 mph 1018.1mb 62f 60f
4:12 3 9 mph 1018.2mb 62f 60f
4:06 3 9 mph 1018.2mb 61f 60f
4:00 3 10 mph 1018.2mb 62f 60f
3:54 3 9 mph 1018.2mb 62f 60f
3:48 3 10 mph 1018.2mb 62f 59f
3:42 3 8 mph 1018.3mb 62f 60f
3:36 3 9 mph 1018.4mb 61f 60f
3:30 2 7 mph 1018.4mb 61f 60f
3:24 2 10 mph 1018.4mb 61f 60f
3:18 2 6 mph 1018.4mb 61f 60f
3:12 2 7 mph 1018.4mb 61f 60f
3:06 2 9 mph 1018.4mb 61f 60f
3:00 5 9 mph 1018.4mb 61f 60f
2:54 2 10 mph 1018.5mb 61f 60f
2:48 3 9 mph 1018.5mb 61f 59f
2:42 3 7 mph 1018.6mb 61f 60f
2:36 2 8 mph 1018.6mb 61f 59f
2:30 2 6 mph 1018.7mb 61f 60f
2:24 2 7 mph 1018.7mb 61f 60f
2:18 1 5 mph 1018.7mb 61f 60f
2:12 2 6 mph 1018.8mb 61f 60f
2:06 1 6 mph 1018.8mb 60f 60f
2:00 2 7 mph 1018.7mb 60f 60f
1:54 2 7 mph 1018.7mb 60f 60f
1:48 1 6 mph 1018.7mb 60f 60f
1:42 2 7 mph 1018.7mb 60f 60f
1:36 1 7 mph 1018.7mb 60f 60f
1:30 1 6 mph 1018.7mb 60f 60f
1:24 1 3 mph 1018.7mb 60f 61f
1:18  -  5 mph 1018.7mb 60f 61f
1:12 1 5 mph 1018.8mb 60f 60f
1:06 2 5 mph 1018.7mb 60f 60f
1:00 2 5 mph 1018.7mb 60f 59f
12:54 1 5 mph 1018.7mb 60f 60f
12:48  -  5 mph 1018.7mb 60f 60f
12:42 1 5 mph 1018.7mb 60f 60f
12:36 1 5 mph 1018.7mb 60f 60f
12:30 1 6 mph 1018.7mb 60f 60f
12:24 2 7 mph 1018.7mb 60f 58f
12:18 1 6 mph 1018.7mb 60f 59f
12:12 2 6 mph 1018.8mb 60f 58f
12:06  -  6 mph 1018.8mb 60f 59f
12:00  -  6 mph 1018.8mb 60f 59f
11:54 2 6 mph 1018.8mb 60f 58f
11:48 2 7 mph 1018.8mb 60f 57f
11:42 3 7 mph 1018.8mb 60f 57f
11:36  -  6 mph 1018.8mb 60f 58f
11:30 1 5 mph 1018.8mb 60f 57f
11:24  -  5 mph 1018.8mb 60f 57f
11:18 2 5 mph 1018.7mb 60f 56f
11:12 2 7 mph 1018.7mb 60f 56f
11:06 7 8 mph 1018.7mb 60f 55f
11:00 7 8 mph 1018.7mb 60f 55f
10:54 2 8 mph 1018.6mb 60f 56f
10:48 2 7 mph 1018.6mb 60f 55f
10:30 2 6 mph 1018.6mb 60f 55f
10:24 5 7 mph 1018.6mb 60f 55f
10:18 2 5 mph 1018.6mb 60f 55f
10:12 1 2 mph 1018.6mb 60f 55f
10:06 2 3 mph 1018.6mb 60f 55f
10:00 1 5 mph 1018.6mb 60f 56f
9:54 2 5 mph 1018.5mb 60f 56f
9:48 2 3 mph 1018.4mb 60f 56f
9:42 1 6 mph 1018.4mb 60f 55f
9:36 2 6 mph 1018.4mb 60f 54f
9:30 5 6 mph 1018.4mb 60f 54f
9:24 5 6 mph 1018.4mb 60f 54f
9:18 5 6 mph 1018.5mb 60f 53f
9:12 3
mph
1018.5mb 60f 53f
9:06 3 5 mph 1018.5mb 60f 53f
9:00 2 3 mph 1018.5mb 60f 53f
8:54 3 6 mph 1018.5mb 60f 53f
8:48 5 6 mph 1018.4mb 60f 53f
8:42 3 5 mph 1018.4mb 60f 53f
8:36 3 5 mph 1018.4mb 60f 53f
8:30 2 5 mph 1018.5mb 60f 53f
8:24 2 5 mph 1018.5mb 60f 53f
8:18 2 5 mph 1018.4mb 60f 52f
8:12 3 6 mph 1018.4mb 60f 52f
8:06 5 6 mph 1018.3mb 60f 52f
8:00 3 6 mph 1018.3mb 60f 52f
7:54 5 6 mph 1018.3mb 60f 52f
7:48 5 6 mph 1018.3mb 60f 52f
7:42 5
mph
1018.3mb 60f 52f
7:36 3 6 mph 1018.3mb 60f 52f
7:30 6 7 mph 1018.3mb 60f 52f
7:24 5 7 mph 1018.3mb 60f 52f
7:18 5 6 mph 1018.2mb 60f 52f
7:12 5 6 mph 1018.2mb 60f 52f
7:06 3 5 mph 1018.1mb 60f 52f
7:00 1 2 mph 1018.1mb 60f 52f
6:54 1 2 mph 1018.1mb 60f 52f
6:48 1 2 mph 1018.1mb 60f 52f
6:42 2
mph
1018.1mb 60f 52f
6:36 1 2 mph 1018.1mb 60f 52f
6:30 1 3 mph 1018.1mb 60f 52f
6:24 2
mph
1018.1mb 60f 52f
6:18 1 3 mph 1018mb 60f 52f
6:12 2 3 mph 1017.9mb 60f 52f
6:06 2
mph
1017.9mb 60f 52f
6:00 2 3 mph 1017.9mb 59f 52f
5:54 2
mph
1017.9mb 59f 52f
5:48 2 3 mph 1018mb 59f 52f
5:42 2
mph
1017.9mb 59f 52f
5:36 2
mph
1017.9mb 59f 52f
5:30 2
mph
1017.9mb 59f 52f
5:24 2
mph
1017.9mb 59f 51f
5:18 1 2 mph 1017.9mb 60f 52f
5:12 2 3 mph 1017.8mb 60f 52f
5:06 2 3 mph 1017.8mb 60f 52f
5:00 3 6 mph 1017.8mb 60f 51f
4:54 3 5 mph 1017.9mb 60f 52f
4:48 2 6 mph 1017.9mb 59f 52f